Weather History for Greenwood, NS

Change the Weather History Date:

Thursday, October 17, 2013

  Actual Average Record
Temperature  
Mean Temperature 62 °F -  
Max Temperature 71 °F 51 °F 75 °F (1999)
Min Temperature 53 °F 34 °F 26 °F (2000)
Degree Days  
Heating Degree Days 3    
Growing Degree Days 12 (Base 50)    
Moisture  
Dew Point 56 °F    
Average Humidity 90    
Maximum Humidity 100    
Minimum Humidity 46    
Precipitation  
Precipitation 0.00 in 0.14 in - ()
Sea Level Pressure  
Sea Level Pressure 29.81 in    
Wind  
Wind Speed 6 mph ()    
Max Wind Speed 17 mph    
Max Gust Speed 23 mph    
Visibility 9.3 miles    
Events Rain    
Averages and records for this station are not official NWS values.
T = Trace of Precipitation, MM = Missing Value Source: Averaged Metar Reports

Daily Weather History Graph

Daily Weather History Graph

Search for Another Location

Airport:

Trip Planner

Search our weather history database for the weather conditions in past years. The results will help you decide how hot, cold, wet, or windy it might be!

Date:

Astronomy

Oct. 17, 2013 Rise Set
Actual Time 7:38 AM ADT 6:30 PM ADT
Civil Twilight 7:08 AM ADT 7:00 PM ADT
Nautical Twilight 6:34 AM ADT 7:34 PM ADT
Astronomical Twilight 6:00 AM ADT 8:08 PM ADT
Moon 5:44 PM ADT (10/17) 6:03 AM ADT (10/17)
Length of Visible Light 11h 52m
Length of Day
10h 52m
Waxing Gibbous, 98% of the Moon is Illuminated
Oct 17
Waxing Gibbous
Oct 18
Full
Oct 26
Last Quarter
Nov 3
New
Nov 10
First Quarter

Hourly Weather History & Observations

Time (ADT) Temp. Dew Point Humidity Pressure Visibility Wind Dir Wind Speed Gust Speed Precip Events Conditions
12:00 AM 57.2 °F 57.2 °F 100% 29.96 in 4.0 mi East 9.2 mph - N/A Rain Light Rain Showers
1:00 AM 55.4 °F 55.4 °F 100% 29.93 in 6.0 mi NE 5.8 mph - N/A Rain Light Rain Showers
1:40 AM - - N/A% - 9.0 mi NE 5.8 mph - N/A   Overcast
2:00 AM 57.2 °F 55.4 °F 94% 29.89 in 12.0 mi NNE 6.9 mph - N/A   Overcast
2:36 AM - - N/A% - 12.0 mi NE 3.5 mph - N/A   Overcast
3:00 AM 56 °F 56 °F 100% 29.87 in 12 mi NE 3.5 mph - -   Partly Cloudy
3:00 AM 55.4 °F 55.4 °F 100% 29.87 in 12.0 mi NE 3.5 mph - N/A   Overcast
3:46 AM - - N/A% - 15.0 mi NNE 3.5 mph - N/A   Overcast
4:00 AM 55.4 °F 55.4 °F 100% 29.85 in 15.0 mi NNE 4.6 mph - N/A   Overcast
5:00 AM 57.2 °F 57.2 °F 100% 29.84 in 9.0 mi ESE 2.3 mph - N/A   Overcast
6:00 AM 57.2 °F 57.2 °F 100% 29.83 in 9.0 mi Calm Calm - N/A   Overcast
7:00 AM 57.2 °F 57.2 °F 100% 29.82 in 9.0 mi SSE 2.3 mph - N/A   Overcast
7:25 AM - - N/A% - 4.0 mi Calm Calm - N/A   Overcast
8:00 AM 57.2 °F 57.2 °F 100% 29.83 in 3.0 mi Calm Calm - N/A   Overcast
9:00 AM 60 °F 59 °F 96% 29.83 in 3 mi Calm Calm - -   Mist
9:00 AM 59.0 °F 59.0 °F 100% 29.83 in 3.0 mi Calm Calm - N/A   Overcast
9:15 AM - - N/A% - 2.5 mi South 3.5 mph - N/A   Overcast
9:37 AM - - N/A% - 1.0 mi SSW 2.3 mph - N/A   Overcast
10:00 AM 62.6 °F 60.8 °F 94% 29.82 in 1.2 mi WSW 4.6 mph - N/A   Overcast
10:10 AM - - N/A% - 2.0 mi West 6.9 mph - N/A   Overcast
10:45 AM - - N/A% - 4.0 mi WSW 5.8 mph - N/A   Overcast
11:00 AM 64.4 °F 62.6 °F 94% 29.80 in 12.0 mi WSW 9.2 mph - N/A   Mostly Cloudy
11:33 AM - - N/A% - 15.0 mi WSW 5.8 mph - N/A   Scattered Clouds
12:00 PM 66.2 °F 62.6 °F 88% 29.78 in 15.0 mi West 2.3 mph - N/A   Partly Cloudy
1:00 PM 66.2 °F 59.0 °F 78% 29.78 in 15.0 mi WNW 5.8 mph 17.3 mph N/A   Scattered Clouds
2:00 PM 71.6 °F 53.6 °F 53% 29.77 in 15.0 mi WSW 15.0 mph 23.0 mph N/A   Mostly Cloudy
3:00 PM 70 °F 54 °F 46% 29.75 in 15 mi WSW 17.3 mph - -   Mostly Cloudy
3:00 PM 69.8 °F 53.6 °F 56% 29.75 in 15.0 mi WSW 17.3 mph - N/A   Mostly Cloudy
4:00 PM 66.2 °F 57.2 °F 73% 29.75 in 15.0 mi WNW 16.1 mph 21.9 mph N/A   Partly Cloudy
5:00 PM 60.8 °F 55.4 °F 82% 29.76 in 15.0 mi West 12.7 mph - N/A   Partly Cloudy
6:00 PM 57.2 °F 53.6 °F 88% 29.76 in 8.0 mi WNW 10.4 mph - N/A   Partly Cloudy
6:17 PM - - N/A% - 4.0 mi West 11.5 mph - N/A   Mostly Cloudy
7:00 PM 55.4 °F 53.6 °F 94% 29.77 in 6.0 mi West 13.8 mph - N/A   Overcast
8:00 PM 53.6 °F 51.8 °F 94% 29.78 in 9.0 mi WSW 9.2 mph - N/A   Overcast
9:00 PM 53 °F 52 °F 96% 29.78 in 12 mi SW 8.1 mph - -   Overcast
9:00 PM 53.6 °F 51.8 °F 94% 29.78 in 12.0 mi SW 6.9 mph - N/A   Overcast
10:00 PM 53.6 °F 51.8 °F 94% 29.80 in 12.0 mi West 6.9 mph - N/A   Overcast
11:00 PM 53.6 °F 51.8 °F 94% 29.80 in 12.0 mi WSW 8.1 mph - N/A   Overcast